Overview Statistics Trail Chart Weather Telemetry Raw packets
 

This is the latest recevied weather packets stored in our database for station/object K1WJY. If no packets are shown the sender has not sent any weather packets the latest 10 day(s).

<< 104 105 106 107 108 109 110 >>
Time Temp. Humidity Pressure Rain* Wind** Luminosity Snow
1787766610 28.33° C 53% 1018 hPa 0 mm - 379 W/m² -
1787766309 28.89° C 53% 1017.9 hPa 0 mm - 726 W/m² -
1787766003 28.33° C 54% 1018 hPa 0 mm - 761 W/m² -
1787765700 27.78° C 55% 1018.2 hPa 0 mm - 711 W/m² -
1787765395 28.89° C 52% 1018.2 hPa 0 mm - 701 W/m² -
1787765089 27.78° C 55% 1018.2 hPa 0 mm - 738 W/m² -
1787764789 27.78° C 54% 1018.4 hPa 0 mm - 745 W/m² -
1787764485 27.22° C 59% 1018.5 hPa 0 mm - 614 W/m² -
1787764180 27.78° C 56% 1018.4 hPa 0 mm - 714 W/m² -
1787763876 27.78° C 55% 1018.2 hPa 0 mm - 687 W/m² -
1787763571 27.78° C 54% 1018.2 hPa 0 mm - 722 W/m² -
1787763266 27.78° C 54% 1018.3 hPa 0 mm - 732 W/m² -
1787762966 27.78° C 55% 1018.5 hPa 0 mm - 741 W/m² -
1787762666 27.22° C 55% 1018.4 hPa 0 mm - 766 W/m² -
1787762364 27.22° C 54% 1018.4 hPa 0 mm - 732 W/m² -
1787762062 26.67° C 57% 1018.3 hPa 0 mm - 689 W/m² -
1787761757 27.22° C 55% 1018.6 hPa 0 mm - 712 W/m² -
1787761453 26.67° C 59% 1018.3 hPa 0 mm - 714 W/m² -
1787761153 27.22° C 58% 1018.7 hPa 0 mm - 695 W/m² -
1787760847 27.78° C 58% 1018.5 hPa 0 mm - 698 W/m² -
1787760545 26.67° C 56% 1018.5 hPa 0 mm - 693 W/m² -
1787760244 27.22° C 58% 1018.3 hPa 0 mm - 723 W/m² -
1787759936 26.67° C 61% 1018.6 hPa 0 mm - 736 W/m² -
1787759631 26.11° C 61% 1018.7 hPa 0 mm - 764 W/m² -
1787759327 26.11° C 61% 1018.5 hPa 0 mm - 413 W/m² -

* Rain latest hour (hover to see other rain measurements)
** Current wind speed in m/s (hover to see current wind gust speed)